Weather in Mérida

Mexico     20°57′11″N   89°36′35″W
temp.,
°C
wind,
m/s
gust,
m/s
humid.,
%
clouds,
%
prec.,
mm/h
press.,
hPa
HPBL,
m
21 april, wed
wed2101:00+24ese2292100 2.3 101451
04:00+23se2285100 0.0 101322
07:00+22ese12847 0.0 101539
10:00+29se11630 0.0 1017693
13:00+34nw234169 0.1 10152223
16:00+30nne565884 0.1 1014927
19:00+27nne597347 0.1 1014622
22:00+26ne497883 0.0 1016574
22 april, thu
thu2201:00+24ene38863 0.0 1016372
04:00+23ene27933 0.0 1014253
07:00+23e25958 0.0 1016200
10:00+30ese456055 0.1 10161351
13:00+31se4549100 0.1 10151751
16:00+30ne565588 0.0 1012819
19:00+28nne586467 0.0 1013468
22:00+26e511717 0.1 1015489
23 april, fri
fri2301:00+23ese4117581 0.1 1015418
04:00+22ese41288100 0.0 1014441
07:00+21se31093100 0.0 1015425
10:00+28se6859100 0.0 10151055
13:00+33se6838100 0.0 10131897
16:00+36se672799 0.0 10092613
19:00+31ese71144100 0.0 1010775
22:00+26ese6136568 0.0 1012607
24 april, sat
sat2401:00+23se5138299 0.0 1011560
04:00+23se514865 0.0 1009580
07:00+22se5158698 0.0 1010646
10:00+30sse81152100 0.0 10111016
13:00+36sse573079 0.0 10101948
16:00+38sse342510 0.0 10072698
19:00+31n4648100 0.0 1009200
22:00+28ese4105699 0.0 1011515
25 april, sun
sun2501:00+25se4117885 0.0 1012457
04:00+23se3119136 0.0 1010401
07:00+23se3119599 0.0 1013434
10:00+31sse5651100 0.0 10141016
13:00+36se3428100 0.0 10122152
16:00+37n342493 0.0 10102653
19:00+28nne6106892 0.0 1011465
22:00+26ne3676100 0.0 1013247